Regional Weather Roundup
Issued by NWS Jackson, KY

Home | Current Version | Previous Version | Text Only | Print | Product List | Glossary On
Versions: 1 2 3 4 5 6 7 8 9 10 11 12 13 14 15 16 17 18 19 20 21 22 23 24 25 26 27 28 29 30 31 32 33 34 35 36 37 38 39 40 41 42 43 44 45 46 47 48 49 50
000
ASUS43 KJKL 250410
RWRJKL

EAST KENTUCKY HOURLY WEATHER ROUNDUP
NATIONAL WEATHER SERVICE JACKSON KY
1200 AM EDT SUN SEP 25 2016

NOTE: "FAIR" INDICATES FEW OR NO CLOUDS BELOW 12,000 FEET WITH
NO SIGNIFICANT WEATHER AND/OR OBSTRUCTIONS TO VISIBILITY.

* THESE REPORTS ARE NOT UNDER NWS QUALITY CONTROL AND MAY NOT
  REPORT WEATHER SUCH AS PRECIPITATION AND FOG.

KYZ079-080-083-085-087-088-110-112-115-119-120-250500
...EASTERN KENTUCKY...

CITY           SKY/WX    TMP DP  RH WIND       PRES   REMARKS
JACKSON        CLEAR     73  64  73 CALM      30.13S
LONDON         CLEAR     68  64  87 CALM      30.12R
SOMERSET*      CLEAR     66  66 100 CALM      30.12R
MONTICELLO*    CLEAR     64  62  93 N9        30.12
WILLIAMSBURG*  CLEAR     66  66 100 CALM      30.12R
MIDDLESBORO*   CLEAR     65  64  97 CALM      30.13S
HARLAN APT*    CLEAR     64  63  94 CALM      30.14S
PIKE CO APT*     N/A     72  65  80 N5        30.14R
MOREHEAD APT*  MOCLDY    73  63  68 E6G12     30.14S
ASHLAND*       CLEAR     70  64  83 CALM      30.11S
$$

KYZ035-036-041-042-044-050-067-078-099-250500
...CENTRAL KENTUCKY...

CITY           SKY/WX    TMP DP  RH WIND       PRES   REMARKS
MT STERLING*   PTCLDY    72  64  78 E5        30.14S
FLEMING/MASON* CLEAR     69  64  84 E6        30.15R
DANVILLE*      CLEAR     68  64  88 CALM      30.12S
LEXINGTON      CLEAR     75  65  70 NE9       30.12S
FRANKFORT      CLEAR     75  66  73 NE6       30.11R
LOUISVILLE     CLEAR     78  66  66 E6        30.09R
LEBANON*         N/A     75  66  73 E3        30.11S
GLASGOW*       CLEAR     67  67 100 CALM      30.09R
BOWLING GREEN  CLEAR     70  66  87 CALM      30.08R
$$

KYZ091>093-OHZ055-061-077-WVZ005-015-034-035-042-250500
...SOUTHERN OHIO/WEST VIRGINIA...

CITY           SKY/WX    TMP DP  RH WIND       PRES   REMARKS
COVINGTON      CLEAR     72  65  78 E5        30.13R
COLUMBUS       CLEAR     63  56  78 NE6       30.16R
DAYTON         CLEAR     64  57  78 NE7       30.17R
WILMINGTON     CLEAR     65  59  81 NE7       30.14S
HUNTINGTON     CLEAR     72  63  73 NE5       30.12S
CHARLESTON     CLEAR     69  63  81 CALM      30.12S
PINEVILLE*     CLEAR     65  61  88 MISG      30.20S FOG
BECKLEY        CLEAR     65  62  90 CALM      30.19R
BLUEFIELD      CLEAR     66  59  78 W3        30.21S
LOGAN CO APT*    N/A     72  64  78 CALM      30.14R
$$

VAZ002-007-008-TNZ017-027-036-066-071-250500
...SOUTHWEST VIRGINIA/EAST TENNESSEE...

CITY           SKY/WX    TMP DP  RH WIND       PRES   REMARKS
WISE*          CLEAR     70  54  56 N3        30.21S
JONESVILLE*      N/A     64  63  94 CALM      30.15R
ABINGDON*      CLEAR     67  62  82 CALM      30.16S
BRISTOL        CLEAR     65  62  90 CALM      30.13R
MORRISTOWN*    CLEAR     72  63  73 CALM      30.10S
SEVIERVILLE*   CLEAR     68  63  83 CALM      30.09R
KNOXVILLE      CLEAR     76  61  59 N6        30.07
OAK RIDGE      CLEAR     72  65  78 CALM      30.10S
CROSSVILLE     CLEAR     66  63  90 CALM      30.14S
NASHVILLE      CLEAR     73  65  75 CALM      30.07S
$$

...KEY TO REMARKS...
VSB - VISIBILITY IN MILES
WCI - WIND CHILL INDEX
HX  - HEAT INDEX

$$



USA.gov is the U.S. government's official web portal to all federal, state and local government web resources and services.